Overview Statistics Trail Chart Weather Telemetry Raw packets
 

This is the latest recevied weather packets stored in our database for station/object K6CED. If no packets are shown the sender has not sent any weather packets the latest 10 day(s).

<< 28 29 30 31 32 33 34 >>
Time Temp. Humidity Pressure Rain* Wind** Luminosity Snow
1788477208 26.67° C 43% 1014.6 hPa 0 mm - 409 W/m² -
1788476903 27.22° C 43% 1014.5 hPa 0 mm - 436 W/m² -
1788476601 27.22° C 42% 1014.5 hPa 0 mm - 463 W/m² -
1788476295 27.22° C 43% 1014.4 hPa 0 mm - 483 W/m² -
1788475991 27.78° C 42% 1014.6 hPa 0 mm - 503 W/m² -
1788475687 27.78° C 44% 1014.8 hPa 0 mm - 522 W/m² -
1788475382 27.78° C 42% 1014.6 hPa 0 mm - 541 W/m² -
1788475077 27.78° C 43% 1014.6 hPa 0 mm - 558 W/m² -
1788474776 28.33° C 40% 1014.6 hPa 0 mm - 575 W/m² -
1788474471 28.89° C 40% 1014.7 hPa 0 mm - 593 W/m² -
1788474170 28.33° C 41% 1014.6 hPa 0 mm - 611 W/m² -
1788473864 28.33° C 39% 1014.8 hPa 0 mm - 630 W/m² -
1788473558 28.89° C 39% 1014.6 hPa 0 mm - 639 W/m² -
1788473257 29.44° C 39% 1014.9 hPa 0 mm - 659 W/m² -
1788472951 29.44° C 39% 1014.7 hPa 0 mm - 671 W/m² -
1788472650 28.33° C 39% 1014.9 hPa 0 mm - 688 W/m² -
1788472346 28.33° C 38% 1014.8 hPa 0 mm - 696 W/m² -
1788472043 28.89° C 38% 1015.2 hPa 0 mm - 704 W/m² -
1788471740 28.89° C 36% 1015.1 hPa 0 mm - 717 W/m² -
1788471434 28.33° C 35% 1015.2 hPa 0 mm - 727 W/m² -
1788471130 28.33° C 38% 1015.2 hPa 0 mm - 734 W/m² -
1788470826 28.89° C 34% 1015.1 hPa 0 mm - 743 W/m² -
1788470523 29.44° C 33% 1015.2 hPa 0 mm - 755 W/m² -
1788470221 28.33° C 33% 1015.2 hPa 0 mm - 764 W/m² -
1788469918 28.33° C 37% 1015.1 hPa 0 mm - 769 W/m² -

* Rain latest hour (hover to see other rain measurements)
** Current wind speed in m/s (hover to see current wind gust speed)